This demonstration page uses our WeatherBlox Daily Observations layout. Learn more.

36.17497, -115.13722

Hourly Observations for February 20, 2015

Temp ( °F °C ) Dew Point ( °F °C ) Humidity (%) Winds ( mph kmh ) Pressure ( in mb ) Visibility ( mi km ) Precip ( " mm )
12:53 am 00:53 Clear 53 11.7 25 -3.9 34 34 W 3 6 29.98 1015 10 16.0934 0 0
1:53 am 01:53 Clear 53 11.7 25 -3.9 34 34 Calm 29.98 1015 10 16.0934 0 0
2:53 am 02:53 Clear 52 11.1 21 -6.1 30 30 NW 5 7 29.96 1014 10 16.0934 0 0
3:53 am 03:53 Clear 52 11.1 23 -5 32 32 WNW 7 11 29.94 1014 10 16.0934 0 0
4:53 am 04:53 Clear 51 10.6 25 -3.9 36 36 WNW 6 9 29.95 1014 10 16.0934 0 0
5:53 am 05:53 Clear 51 10.6 24 -4.4 35 35 NW 6 9 29.96 1014 10 16.0934 0 0
6:53 am 06:53 Sunny 52 11.1 23 -5 32 32 NW 5 7 29.97 1015 10 16.0934 0 0
7:53 am 07:53 Sunny 57 13.9 22 -5.6 26 26 WNW 6 9 29.99 1016 10 16.0934 0 0
8:53 am 08:53 Sunny 61 16.1 22 -5.6 22 22 N 3 6 29.99 1016 10 16.0934 0 0
9:53 am 09:53 Sunny 61 16.1 20 -6.7 20 20 E 9 15 30 1016 10 16.0934 0 0
10:53 am 10:53 Sunny 64 17.8 20 -6.7 18 18 ESE 8 13 29.99 1016 10 16.0934 0 0
11:53 am 11:53 Sunny 67 19.4 18 -7.8 15 15 SSE 8 13 29.97 1015 10 16.0934 0 0
12:53 pm 12:53 Sunny 68 20 19 -7.2 15 15 SE 3 6 29.93 1014 10 16.0934 0 0
1:53 pm 13:53 Sunny 71 21.7 19 -7.2 14 14 VRB 3 6 29.91 1013 10 16.0934 0 0
2:53 pm 14:53 Sunny 73 22.8 19 -7.2 13 13 ESE 5 7 29.89 1012 10 16.0934 0 0
3:53 pm 15:53 Sunny 73 22.8 19 -7.2 13 13 SE 7 11 29.87 1011 10 16.0934 0 0
4:53 pm 16:53 Sunny 71 21.7 20 -6.7 14 14 SE 5 7 29.85 1011 10 16.0934 0 0
5:53 pm 17:53 Clear 68 20 19 -7.2 15 15 SE 3 6 29.85 1011 10 16.0934 0 0
6:53 pm 18:53 Clear 66 18.9 20 -6.7 17 17 Calm 29.86 1011 10 16.0934 0 0
7:53 pm 19:53 Clear 62 16.7 23 -5 22 22 NW 9 15 29.86 1011 10 16.0934 0 0
8:53 pm 20:53 Clear 59 15 24 -4.4 26 26 WNW 8 13 29.88 1012 10 16.0934 0 0
9:53 pm 21:53 Clear 58 14.4 24 -4.4 27 27 NW 7 11 29.88 1012 10 16.0934 0 0
10:53 pm 22:53 Clear 59 15 22 -5.6 24 24 NW 10 17 29.88 1012 10 16.0934 0 0
11:53 pm 23:53 Clear 60 15.6 15 -9.4 17 17 NW 9 15 29.87 1012 10 16.0934 0 0

Powered by AerisWeather